This demonstration page uses our WeatherBlox Daily Observations layout. Learn more.

Left ArrowRight Arrow

38.20091, -84.87328

Hourly Observations for August 4, 2017

Temp ( °F °C ) Dew Point ( °F °C ) Humidity (%) Winds ( mph kmh ) Pressure ( in mb ) Visibility ( mi km ) Precip ( " mm )
12:53 am 00:53 Clear 73 22.8 66 18.9 79 79 SW 5 7 29.95 1014 10 16 0.00 0.00
1:53 am 01:53 Clear 74 23.3 65 18.3 74 74 SSW 8 13 29.95 1014 10 16 0.00 0.00
2:53 am 02:53 Clear 73 22.8 65 18.3 76 76 SSW 5 7 29.94 1014 10 16 0.00 0.00
3:53 am 03:53 Partly Cloudy 73 22.8 64 17.8 74 74 SSW 7 11 29.93 1014 10 16 0.00 0.00
4:53 am 04:53 Clear 73 22.8 64 17.8 74 74 SSW 6 9 29.92 1013 10 16 0.00 0.00
5:53 am 05:53 Mostly Cloudy 72 22.2 64 17.8 76 76 SSW 7 11 29.92 1013 10 16 0.00 0.00
6:37 am 06:37 Mostly Cloudy with Nearby Thunderstorms 72 22.2 65 18.3 79 79 SSW 12 19 29.91 1013 10 16 0.00 0.00
6:53 am 06:53 Mostly Cloudy 72 22.2 65 18.3 79 79 SSW 12 19 29.93 1013 10 16 0.00 0.00
7:53 am 07:53 Cloudy with Light Rain 70 21.1 65 18.3 84 84 SSW 12 19 29.94 1014 10 16 0.03 0.76
8:53 am 08:53 Sunny 70 21.1 65 18.3 84 84 SSW 10 17 29.95 1014 10 16 0.00 0.03
9:53 am 09:53 Mostly Sunny 72 22.2 66 18.9 82 82 SSW 7 11 29.95 1014 10 16 0.00 0.00
10:09 am 10:09 Mostly Cloudy 73 22.8 67 19.4 81 81 SSW 10 17 29.94 1014 10 16 0.00 0.00
10:31 am 10:31 Partly Cloudy 74 23.3 68 20 82 82 SSW 9 15 29.94 1014 10 16 0.00 0.00
10:45 am 10:45 Mostly Cloudy 75 23.9 68 20 79 79 SW 10 17 29.94 1014 10 16 0.00 0.00
10:53 am 10:53 Mostly Cloudy 75 23.9 68 20 79 79 SSW 13 20 29.95 1014 10 16 0.00 0.00
11:03 am 11:03 Cloudy 75 23.9 68 20 79 79 SW 10 17 29.94 1014 10 16 0.00 0.00
11:53 am 11:53 Cloudy 74 23.3 67 19.4 79 79 WSW 13 20 29.96 1014 10 16 0.00 0.00
12:53 pm 12:53 Cloudy 75 23.9 67 19.4 76 76 WSW 12 19 29.94 1014 10 16 0.00 0.00
1:31 pm 13:31 Cloudy 77 25 68 20 74 74 WSW 9 15 29.91 1013 10 16 0.00 0.00
1:48 pm 13:48 Cloudy 75 24 66 19 74 74 W 13 20 29.94 1014 10 16 0.00 0.00
1:53 pm 13:53 Cloudy 74 23.3 67 19.4 79 79 W 12 19 29.93 1014 10 16 0.00 0.00
2:15 pm 14:15 Mostly Cloudy 77 25 67 19.4 71 71 W 9 15 29.91 1013 10 16 0.00 0.00
2:23 pm 14:23 Mostly Cloudy 77 25 67 19.4 71 71 W 10 17 29.91 1013 10 16 0.00 0.00
2:46 pm 14:46 Cloudy 77 25 65 18.3 66 66 W 10 17 29.91 1013 10 16 0.00 0.00
2:53 pm 14:53 Cloudy 78 25.6 65 18.3 64 64 WSW 9 15 29.92 1013 10 16 0.00 0.00
3:53 pm 15:53 Mostly Sunny 80 26.7 61 16.1 52 52 W 13 20 29.91 1013 10 16 0.00 0.00
4:53 pm 16:53 Partly Cloudy 80 26.7 56 13.3 44 44 W 13 20 29.91 1013 10 16 0.00 0.00
5:53 pm 17:53 Sunny 79 26.1 53 11.7 41 41 W 15 24 29.92 1013 10 16 0.00 0.00
6:53 pm 18:53 Sunny 77 25 54 12.2 45 45 WNW 8 13 29.93 1014 10 16 0.00 0.00
7:53 pm 19:53 Sunny 73 22.8 52 11.1 48 48 WNW 12 19 29.97 1015 10 16 0.00 0.00
8:53 pm 20:53 Mostly Clear 69 20.6 52 11.1 55 55 NW 6 9 30.00 1016 10 16 0.00 0.00
9:53 pm 21:53 Cloudy 67 19.4 52 11.1 59 59 NW 5 7 30.03 1017 10 16 0.00 0.00
10:53 pm 22:53 Clear 64 17.8 51 10.6 63 63 WNW 6 9 30.05 1018 10 16 0.00 0.00
11:53 pm 23:53 Clear 61 16.1 52 11.1 72 72 Calm 30.05 1018 10 16 0.00 0.00

Powered by AerisWeather